Location: Trebic
(49.2170°N, 15.8830°E)
Time: 01:08:49
(UTC+02:00)

Transit 2A Rocket - Pass Details

Date: 27 July 2019
Orbit: 590 x 913 km, 66.7° (Epoch: 21 August)

Event Time Altitude Azimuth Distance (km) Brightness Sun altitude
Rises 06:35:21 0° 298° (WNW) 3,386 7.9 10.1°
Reaches altitude 10° 06:39:39 10° 328° (NNW) 2,372 7.4 10.8°
Maximum altitude 06:41:44 12° 351° (N) 2,186 7.5 11.1°
Drops below altitude 10° 06:43:46 10° 14° (NNE) 2,287 8.0 11.4°
Sets 06:47:43 0° 45° (NE) 3,124 9.3 12.0°
